UCLSAT (42765 NORAD) Tracking and Keplerian Element Data

This shows tracking and keplerian element data for the satellite.

Feedback or suggestion? Click here.




ElementValue
Catalog42765
NameUCLSAT
Epoch Orbit34431
Epoch Day239.06940487
Epoch Year2023
RAAN277.9646
Inclination97.1342
Eccentricity0.0006761
Argument of Perigee166.6356
Mean Anonmoly193.5082
Mean Motion15.61080597
Decay Rate0.00085672
L11 42765U 17036A 23239.06940487 .00085672 00000+0 10093-2 0 9990
L22 42765 97.1342 277.9646 0006761 166.6356 193.5082 15.61080597344311



Live tracking and technical data element details for UCLSAT (NORAD 42765). UCLSAT can be tracked NOW for your location showing map with azimuth and elevation plus other details from your city location.







IsCatalogInMostPopularTable: catalog: 42765, numindb: 580
Update: records affected: 1



GetName: 42765 UCLSAT

Hit Count: updated at: Fri, 16 May 2025 11:36:26 GMT